ニート彗星

169P/NEAT (2005)

English version
Home page
Updated on March 7, 2020

---------------------------------------------------------------------

・ プロフィール

・ 写真集

・ 軌道要素

Epoch 2005 Sept. 27.0 TT = JDT 2453640.5
T 2005 Sept. 17.85868 TT                                MPCW
q   0.6053281            (2000.0)            P               Q
n   0.23460350     Peri.  217.92681     +0.82656396     -0.56269608
a   2.6036327      Node   176.24605     +0.55238413     +0.80661260
e   0.7675063      Incl.   11.31897     +0.10799898     +0.18096746
P   4.20
From 1096 observations 1989 Mar. 7-2015 Mar. 24, mean residual 0".4.

・ 星図

・ 光度変化

        H = 15.3  G = 0.15                [   ,-60]  (              〜2005年 7月19日)
        m1 = 15.8 + 5 logΔ + 20.0 log r  [-60, 60]  (2005年 7月19日〜2005年11月16日)
        H = 15.3  G = 0.15                [ 60,   ]  (2005年11月16日〜              )

        ※ 緑色の曲線は、H = 15.3  G = 0.15 の光度曲線です。

---------------------------------------------------------------------

軌道要素はM.P.E.C. 2015-G03に掲載されたものです。
星図は StellaNavigator Ver.2.0 for Windows (アストロアーツ 編著 / アスキー出版局刊) で作成したものです。
光度グラフはComet for Windowsで作成したものです。

---------------------------------------------------------------------

Copyright(C) Seiichi Yoshida (comet@aerith.net). All rights reserved.